Location: Veytaux
(46.4185°N, 6.9320°E)
Time: 09:07:18
(UTC+00:00)

Cosmos 1980 - Pass Details

Date: 27 May 2022
Orbit: 840 x 846 km, 71.0° (Epoch: 01 July)

Event Time Altitude Azimuth Distance (km) Brightness Sun altitude
Exits shadow 00:05:45 46° 170° (S) 1,123 3.9 -21.8°
Maximum altitude 00:07:17 64° 112° (ESE) 932 3.8 -21.8°
Drops below altitude 10° 00:12:52 10° 32° (NNE) 2,465 7.1 -21.6°
Sets 00:15:20 0° 30° (NNE) 3,404 8.1 -21.5°
